Weather History for KellyUSA Airport, TX

Change the Weather History Date:

Wednesday, April 23, 2014

  Actual Average Record
Temperature  
Mean Temperature 77 °F -  
Max Temperature 90 °F 80 °F 91 °F (2002)
Min Temperature 65 °F 60 °F 51 °F (1998)
Cooling Degree Days 12    
Growing Degree Days 27 (Base 50)    
Moisture  
Dew Point 63 °F    
Average Humidity 62    
Maximum Humidity 92    
Minimum Humidity 38    
Precipitation  
Precipitation 0.00 in - - ()
Sea Level Pressure  
Sea Level Pressure 29.83 in    
Wind  
Wind Speed 10 mph (SE)    
Max Wind Speed 22 mph    
Max Gust Speed 30 mph    
Visibility 10 miles    
Events      
Averages and records for this station are not official NWS values.
T = Trace of Precipitation, MM = Missing Value Source: NWS Daily Summary

Daily Weather History Graph

Daily Weather History Graph

Search for Another Location

Airport:

Trip Planner

Search our weather history database for the weather conditions in past years. The results will help you decide how hot, cold, wet, or windy it might be!

Date:

Astronomy

Apr. 23, 2014 Rise Set
Actual Time 6:59 AM CDT 8:05 PM CDT
Civil Twilight 6:35 AM CDT 8:30 PM CDT
Nautical Twilight 6:05 AM CDT 9:00 PM CDT
Astronomical Twilight 5:35 AM CDT 9:30 PM CDT
Moon 3:04 AM CDT (4/23) 2:42 PM CDT (4/23)
Length of Visible Light 13h 55m
Length of Day
13h 06m
Waning Crescent, 34% of the Moon is Illuminated
Apr 23
Waning Crescent
Apr 29
New
May 6
First Quarter
May 14
Full
May 21
Last Quarter

Hourly Weather History & Observations

Time (CDT) Temp. Heat Index Dew Point Humidity Pressure Visibility Wind Dir Wind Speed Gust Speed Precip Events Conditions
12:58 AM 72.5 °F - 60.6 °F 66% 29.92 in 10.0 mi SE 8.1 mph - N/A   Clear
1:58 AM 70.2 °F - 61.9 °F 75% 29.90 in 10.0 mi SE 5.8 mph - N/A   Clear
2:58 AM 67.1 °F - 61.5 °F 82% 29.89 in 10.0 mi SE 5.8 mph - N/A   Clear
3:58 AM 66.4 °F - 62.2 °F 86% 29.88 in 10.0 mi SE 4.6 mph - N/A   Clear
4:58 AM 66.4 °F - 62.2 °F 86% 29.88 in 10.0 mi East 4.6 mph - N/A   Clear
5:58 AM 66.4 °F - 63.1 °F 89% 29.89 in 10.0 mi SE 3.5 mph - N/A   Clear
6:58 AM 65.8 °F - 63.3 °F 92% 29.89 in 10.0 mi East 4.6 mph - N/A   Clear
7:58 AM 66.7 °F - 64.4 °F 92% 29.91 in 10.0 mi ESE 6.9 mph - N/A   Clear
8:22 AM 68.0 °F - 64.4 °F 88% 29.92 in 10.0 mi Variable 3.5 mph - N/A   Partly Cloudy
8:58 AM 70.5 °F - 64.9 °F 82% 29.91 in 10.0 mi SE 6.9 mph - N/A   Clear
9:58 AM 75.0 °F - 64.2 °F 69% 29.89 in 10.0 mi SE 8.1 mph - N/A   Clear
10:58 AM 79.2 °F - 64.8 °F 61% 29.89 in 10.0 mi SSE 11.5 mph - N/A   Clear
11:58 AM 83.1 °F 84.6 °F 64.2 °F 53% 29.88 in 10.0 mi SSE 13.8 mph - N/A   Clear
12:02 PM 84.2 °F 85.6 °F 64.4 °F 51% 29.90 in 10.0 mi ESE 15.0 mph - N/A   Clear
12:58 PM 84.4 °F 85.4 °F 63.5 °F 49% 29.85 in 10.0 mi SE 10.4 mph 21.9 mph N/A   Partly Cloudy
1:58 PM 86.2 °F 87.3 °F 63.5 °F 47% 29.83 in 10.0 mi South 16.1 mph - N/A   Partly Cloudy
2:01 PM 87.8 °F 89.4 °F 64.4 °F 46% 29.85 in 10.0 mi South 13.8 mph - N/A   Scattered Clouds
2:36 PM 87.8 °F 89.4 °F 64.4 °F 46% 29.83 in 10.0 mi SSE 18.4 mph 24.2 mph N/A   Light Drizzle
2:46 PM 87.8 °F 88.5 °F 62.6 °F 43% 29.82 in 10.0 mi SSE 17.3 mph 23.0 mph N/A   Partly Cloudy
2:53 PM 87.8 °F 88.5 °F 62.6 °F 43% 29.82 in 10.0 mi SE 15.0 mph 23.0 mph N/A   Light Drizzle
2:58 PM 88.5 °F 89.2 °F 62.8 °F 42% 29.80 in 10.0 mi SSE 18.4 mph 24.2 mph 0.00 in   Light Drizzle
3:57 PM 89.6 °F 90.1 °F 62.6 °F 40% 29.74 in 10.0 mi SSE 17.3 mph - N/A   Partly Cloudy
4:56 PM 89.6 °F 89.5 °F 60.8 °F 38% 29.72 in 10.0 mi SE 19.6 mph 24.2 mph N/A   Partly Cloudy
5:57 PM 87.8 °F 87.6 °F 60.8 °F 40% 29.72 in 10.0 mi SE 18.4 mph - N/A   Scattered Clouds
6:56 PM 84.2 °F 84.4 °F 60.8 °F 45% 29.70 in 10.0 mi SE 21.9 mph 29.9 mph N/A   Clear
7:55 PM 80.6 °F 81.5 °F 60.8 °F 51% 29.75 in 10.0 mi SE 18.4 mph 26.5 mph N/A   Clear
8:56 PM 77.0 °F - 59.0 °F 54% 29.78 in 10.0 mi SSE 15.0 mph - N/A   Clear
9:55 PM 75.2 °F - 62.6 °F 65% 29.79 in 10.0 mi SE 17.3 mph 21.9 mph N/A   Clear
10:58 PM 72.7 °F - 62.6 °F 71% 29.74 in 10.0 mi SE 21.9 mph 27.6 mph N/A   Clear
11:58 PM 70.9 °F - 60.6 °F 70% 29.75 in 10.0 mi SE 18.4 mph - N/A   Clear